TimeAKST,TemperatureF,Dew PointF,Humidity,Sea Level PressureIn,VisibilityMPH,Wind Direction,Wind SpeedMPH,Gust SpeedMPH,PrecipitationIn,Events,Conditions,WindDirDegrees,DateUTC
12:53 AM,17.1,3.0,54,29.51,10.0,North,8.1,20.7,N/A,,Overcast,10,2012-12-04 09:53:00
1:53 AM,17.1,3.0,54,29.49,10.0,Variable,5.8,16.1,N/A,,Overcast,0,2012-12-04 10:53:00
3:53 AM,16.0,1.9,54,29.48,10.0,North,11.5,19.6,N/A,,Overcast,10,2012-12-04 12:53:00
4:53 AM,16.0,3.0,57,29.47,10.0,North,8.1,-,N/A,,Overcast,360,2012-12-04 13:53:00
5:53 AM,15.1,1.9,56,29.46,10.0,North,5.8,-,N/A,,Overcast,360,2012-12-04 14:53:00
6:53 AM,15.1,3.9,61,29.45,10.0,North,9.2,-,N/A,,Overcast,10,2012-12-04 15:53:00
7:53 AM,14.0,3.0,62,29.45,10.0,North,8.1,-,N/A,,Mostly Cloudy,10,2012-12-04 16:53:00
8:53 AM,14.0,1.9,59,29.45,10.0,North,6.9,-,N/A,,Mostly Cloudy,10,2012-12-04 17:53:00
9:53 AM,14.0,1.0,56,29.46,10.0,North,4.6,-,N/A,,Mostly Cloudy,360,2012-12-04 18:53:00
10:53 AM,15.1,-0.9,49,29.45,10.0,North,9.2,-,N/A,,Overcast,10,2012-12-04 19:53:00
11:53 AM,15.1,1.0,54,29.44,10.0,North,10.4,-,N/A,,Overcast,10,2012-12-04 20:53:00
12:53 PM,14.0,1.9,59,29.44,10.0,NNE,8.1,-,N/A,,Scattered Clouds,20,2012-12-04 21:53:00
1:53 PM,12.9,-0.0,56,29.45,10.0,NNE,9.2,-,N/A,,Overcast,20,2012-12-04 22:53:00
2:53 PM,14.0,-0.9,52,29.44,10.0,North,9.2,-,N/A,,Overcast,10,2012-12-04 23:53:00
3:53 PM,12.9,1.0,59,29.44,10.0,North,11.5,18.4,N/A,,Overcast,360,2012-12-05 00:53:00
4:26 PM,12.2,3.2,67,29.44,10.0,Variable,6.9,-,N/A,,Overcast,0,2012-12-05 01:26:00
4:50 PM,12.2,1.4,62,29.43,10.0,North,8.1,-,N/A,,Overcast,360,2012-12-05 01:50:00
4:53 PM,12.9,1.9,62,29.44,10.0,North,12.7,17.3,N/A,,Overcast,10,2012-12-05 01:53:00
5:53 PM,12.9,1.9,62,29.44,10.0,North,6.9,-,N/A,,Overcast,10,2012-12-05 02:53:00
6:53 PM,12.9,3.0,65,29.43,10.0,North,9.2,18.4,N/A,,Overcast,10,2012-12-05 03:53:00
7:53 PM,12.9,1.9,62,29.43,10.0,North,10.4,16.1,N/A,,Overcast,360,2012-12-05 04:53:00
8:53 PM,12.9,3.0,65,29.44,10.0,North,5.8,-,N/A,,Overcast,360,2012-12-05 05:53:00
9:53 PM,12.0,1.9,64,29.44,10.0,North,6.9,-,N/A,,Partly Cloudy,360,2012-12-05 06:53:00
10:53 PM,12.9,1.9,62,29.44,10.0,Variable,4.6,-,N/A,,Clear,0,2012-12-05 07:53:00
11:53 PM,12.9,3.0,65,29.44,10.0,WNW,4.6,-,N/A,,Clear,300,2012-12-05 08:53:00